Location: Lixville
(37.5770°N, 89.9118°W)
Time: 13:41:02
(UTC+00:00)

Courier 1B Rocket - Pass Details

Date: 16 November 2024
Orbit: 920 x 1201 km, 28.2° (Epoch: 02 December)

Event Time Altitude Azimuth Distance (km) Brightness Sun altitude
Rises 01:32:08 0° 261° (W) 3,618 9.1 -32.4°
Reaches altitude 10° 01:35:43 10° 242° (WSW) 2,637 7.9 -33.1°
Maximum altitude 01:39:41 17° 203° (SSW) 2,122 6.9 -33.9°
Enters shadow 01:40:23 17° 195° (SSW) 2,136 6.9 -34.1°
